STARLINK-3045, 49173

Orbit data source: Space-Track

STARLINK-3045, 49173 is a payload satellite owned by SpaceX/Seattle (US) in LEO that was launched on Tue, 14 Sep 2021 UTC via an FALCON 9 launch vehicle from the Air Force Western Test Range (AFWTR). Payload-class satellites include a variety of spacecraft equipped with specific instruments for various scientific and technological missions. These include communications satellites like Starlink; space stations such as the ISS; scientific satellites like the Hubble; Earth observation satellites from companies like Planet Labs, Umbra, and HawkEye 360; GPS; miniature CubeSats for education and research; and military/defense satellites.

Loading next visibility...
Identifier
49173, 2021-082AV
Orbit
LEO
Country
Flag of USUS
Related business
Manufacturer
SpaceX/Seattle
Mission
Operational Commercial Communications
Bus & Motor
STARLINK, Unknown motor
Mass
297 kg wet, ~275 kg dry
Launch date (UTC)
2021-09-14 (4 years ago)
Launch vehicle
FALCON 9
Launch site
Air Force Western Test Range (AFWTR)
Object type
Payload
Rocket body
Debris
Shape & HBR
Box + 1 Pan, 10.1 m
Radar Cross Section
13.562 m², Large (>1 m²)

Expand to show TLE details & history
Last TLE update: 18 hours ago

TLE from 18 hours ago
0 STARLINK-3045
1 49173U 21082AV  25286.41619632  .00000265  00000-0  30042-4 0  9998
2 49173  69.9976 285.7733 0003078 270.5949  89.4858 14.98332134224414
Epoch: 2025-10-13T09:59Z
TLE epoch observation values (Epoch: 2025-10-13T09:59:19.362Z)
Latitude
0.00006°
Longitude
113.72336°
Altitude
574.454 km
Speed
7.574 km/s
True Right ascension
19h 03m 05s
True Declination
0° 00' 00"
Sunlit
Object was in daylight at epoch
Visualization orbit readout
Latitude
Unknown
Longitude
Unknown
Altitude
Unknown
Speed
Unknown
Apparent Right ascension
Unknown
Apparent Declination
Unknown
Sunlit
N/A
Visualization observer readout
Local Sidereal Time
22:27:49
Azimuth
Unknown
Elevation
Unknown
Doppler factor
Unknown
Orbital elements
Apogee altitude
572.136 km
Perigee altitude
567.859 km
Semi-major axis
6,948.135 km
Eccentricity
0.00031
Inclination
69.9976°
RAAN
285.7733°
Arg. of periapsis
270.5949°
True anomaly
89.52107°
Mean anomaly
89.4858°
Eccentric anomaly
89.50343°
Mean motion
3.74749 °/min
Orbital period
96.06 mins
BSTAR
0.000030042
Loading maneuver chart data...
Computing Atmospheric mass density...
Loading historical data...
Loading historical data...
Loading historical data...
Loading historical data...
Loading historical data...
Loading historical data...
Loading historical data...

Documentation

Showing up to 5 results
|